Regional Weather Roundup
Issued by NWS

Home | Current Version | Previous Version | Graphics & Text | Print | Product List | Glossary Off
Versions: 1 2 3 4 5 6 7 8 9 10 11 12 13 14 15 16 17 18 19 20 21 22 23 24 25 26 27 28 29 30 31 32 33 34 35 36 37 38 39 40 41 42 43 44 45 46 47 48 49 50

000
ASUS43 KMPX 091810
RWRMN
WEATHER ROUNDUP FOR MINNESOTA
NATIONAL WEATHER SERVICE TWIN CITIES/CHANHASSEN MN
1200 PM CST TUE FEB 09 2016


NOTE: "FAIR" INDICATES FEW OR NO CLOUDS BELOW 12,000 FEET WITH NO
SIGNIFICANT WEATHER AND/OR OBSTRUCTIONS TO VISIBILITY. N/A MEANS
CURRENT SKY AND/OR WEATHER CONDITIONS ARE NOT AVAILABLE.

MNZ060>063-068>070-091900-
   Twin Cities Metro

CITY           SKY/WX    TMP DP  RH WIND       PRES   REMARKS
TWIN CITIES    SUNNY     14   0  53 NW16      30.11F WCI  -2
6HR MIN TEMP:   5; 6HR MAX TEMP:  14;

ST PAUL        SUNNY     13  -1  54 NW21G26   30.13F WCI  -5
CRYSTAL        SUNNY     13  -1  54 NW18      30.12F WCI  -4
BLAINE         SUNNY     14   1  57 NW18G24     N/A  WCI  -3
LAKEVILLE      SUNNY     10   1  67 NW17G24   30.09F WCI  -7
EDEN PRAIRIE   SUNNY     13  -1  54 NW20G29   30.11F WCI  -5
6HR MIN TEMP:   6; 6HR MAX TEMP:  13;

SOUTH ST PAUL  SUNNY     14  -1  52 NW15      30.10F WCI  -1
LAKE ELMO      FAIR      14   1  57 NW15      30.09F WCI  -1
$$
MNZ001>005-007-008-013>017-022>024-027-028-091900-
   Northwest Minnesota

CITY           SKY/WX    TMP DP  RH WIND       PRES   REMARKS
BEMIDJI        MOSUNNY    2  -5  75 NW12      30.19S WCI -15
HALLOCK        MOSUNNY    7   0  72 N13       30.31F WCI  -9
ROSEAU         SUNNY      1  -4  78 W5        30.27S WCI  -8
WARROAD        PTSUNNY    1  -2  85 W7        30.25F WCI -11
THIEF RVR FALL SUNNY      9   0  66 N13       30.26F WCI  -7
CROOKSTON      SUNNY      9   3  78 N14       30.30F WCI  -8
FOSSTON        SUNNY     10   0  61 N8        30.23F WCI  -1
DETROIT LAKES  MOSUNNY   10   3  72 N15       30.22F WCI  -6
MOORHEAD       SUNNY     10   5  79 N15       30.29S WCI  -6
PARK RAPIDS    SUNNY      9  -2  61 N15       30.15F WCI  -8
MAHNOMEN       FAIR       7   0  71 N13       30.23F WCI  -9
$$
MNZ006-009>011-018-025>026-091900-
   North Central Minnesota

CITY           SKY/WX    TMP DP  RH WIND       PRES   REMARKS
BAUDETTE       CLOUDY     2  -5  72 NW16      30.20F WCI -18
FLAG ISLAND    SUNNY      3  -2  78 NW14      30.22F WCI -15
INTL FALLS     SUNNY      2  -7  66 N13       30.16F WCI -15
6HR MIN TEMP:  -8; 6HR MAX TEMP:   2;

WASKISH        SUNNY      5  -2  72 NW9       30.20S WCI  -9
LONGVILLE      SUNNY      5  -6  61 NW13      30.16S WCI -12
GRAND RAPIDS   SUNNY      3  -8  60 NW17      30.11F WCI -17
CRANE LAKE     PTSUNNY    1  -8  66 N9G16     30.15F WCI -14
ORR            SUNNY      3  -8  60 NW10G16   30.08F WCI -12
COOK           SUNNY      3  -6  66 NW8       30.10F WCI -10
WALKER         FAIR       3  -6  68 N12       30.17S WCI -14
$$
MNZ012-019>021-037-091900-
   Northeast Minnesota

CITY           SKY/WX    TMP DP  RH WIND       PRES   REMARKS
DULUTH         MOSUNNY    5  -6  60 N18       30.02F WCI -15
6HR MIN TEMP:  -3; 6HR MAX TEMP:   6;

ELY            MOSUNNY    3  -4  72 NW13      30.04S WCI -14
HIBBING        SUNNY      2  -6  69 NW21G26   30.08F WCI -20
EVELETH        SUNNY      3  -6  66 N13G21    30.07F WCI -14
DULUTH HARBOR  SUNNY     10   0  61 NW16      30.11S WCI  -7
TWO HARBORS    SUNNY     12   0  57 NW10G18   30.02S WCI  -1
SILVER BAY     SUNNY     10  -2  56 NW10G18   30.00S WCI  -3
GRAND MARAIS     N/A      9  -4  55 NW14G28   30.03S WCI  -7
G MARAIS ARPRT LGT SNOW   1  -9  60 NW16G32   29.90S WCI -18
$$
MNZ029>031-032-039>041-046>048-054>057-064-091900-
   West Central Minnesota

CITY           SKY/WX    TMP DP  RH WIND       PRES   REMARKS
FERGUS FALLS   CLOUDY    10   3  72 N18       30.27F WCI  -8
WHEATON        CLOUDY    16   9  73 NW17G23   30.29S WCI   0
MORRIS         CLOUDY    12   5  73 NW22      30.22S WCI  -7
ALEXANDRIA     MOSUNNY   11   0  61 NW16      30.17F WCI  -6
ELBOW LAKE     CLOUDY    10   3  73 NW16G22   30.23F WCI  -7
WADENA         SUNNY      9   0  66 NW13      30.17F WCI  -7
GLENWOOD       SUNNY     10   1  67 NW15      30.18F WCI  -6
APPLETON       CLOUDY    16   7  67 NW18      30.25S WCI  -1
BENSON         CLOUDY    12   3  67 N14G20    30.23S WCI  -3
ORTONVILLE     CLOUDY    14   7  73 NW15      30.25F WCI  -1
MADISON        PTSUNNY   16   7  67 NW15      30.26S WCI   1
WILLMAR        FAIR      14   7  73 NW20G25   30.20F WCI  -3
$$
MNZ033>034-036-042>043-049>051-058-059-091900-
   Central Minnesota

CITY           SKY/WX    TMP DP  RH WIND       PRES   REMARKS
ST CLOUD       SUNNY     11  -1  58 NW17G23   30.15F WCI  -6
6HR MIN TEMP:   3; 6HR MAX TEMP:  11;

SAUK CENTRE    FAIR       9   0  65 NW14      30.18S WCI  -7
PAYNESVILLE    SUNNY     11   2  69 NW12G21   30.18F WCI  -4
AITKIN         SUNNY     10  -6  48 NW10      30.11F WCI  -3
PINE RIVER     SUNNY      5  -2  72 NW12      30.18F WCI -11
BRAINERD       SUNNY      7  -3  64 N17       30.15F WCI -12
STAPLES        SUNNY      9  -2  61 NW13      30.16F WCI  -7
LONG PRAIRIE   FAIR       9   0  66 NW13      30.17S WCI  -7
LITTLE FALLS   SUNNY     10  -4  52 NW10G18   30.17F WCI  -3
LITCHFIELD     SUNNY     12   3  67 NW15G23   30.17F WCI  -4
BUFFALO        SUNNY     12   0  59 NW13G21   30.16F WCI  -3
MAPLE LAKE     SUNNY     14   3  62 NW13G21   30.16F WCI   0
$$
MNZ037-044-045-052-053-091900-
   East Central Minnesota

CITY           SKY/WX    TMP DP  RH WIND       PRES   REMARKS
PRINCETON      SUNNY     12   0  57 NW14      30.13S WCI  -3
MORA           SUNNY     12   0  57 NW17      30.12F WCI  -5
CAMBRIDGE      SUNNY     12   0  57 NW14G24   30.10F WCI  -3
RUSH CITY      SUNNY     12  -2  52 NW13G20   30.10F WCI  -2
MOOSE LAKE     SUNNY     10  -6  48 N7        30.08F WCI   0
HINCKLEY       FAIR      12   0  57 N12G22    30.09S WCI  -2
CLOQUET        SUNNY      7  -6  56 NW18      30.05F WCI -12
MCGREGOR       SUNNY      9  -2  61 NW13G18   30.11F WCI  -7
$$
MNZ071>073-080-081-089-090-097-098-091900-
   Southwest Minnesota

CITY           SKY/WX    TMP DP  RH WIND       PRES   REMARKS
MONTEVIDEO     CLOUDY    14   7  73 N16G24    30.25F WCI  -2
GRANITE FALLS  CLOUDY    15   7  69 NW16G23   30.24F WCI   0
CANBY          CLOUDY    19  11  71 W13       30.26F WCI   5
MARSHALL       CLOUDY    13   6  74 NW21      30.22F WCI  -5
REDWOOD FALLS  MOSUNNY   15   4  61 N15G26    30.20F WCI   0
OLIVIA         SUNNY     18   7  62 NW21      30.19F WCI   1
PIPESTONE      SUNNY     16   0  48 N15G25    30.19S WCI   1
WINDOM         SUNNY     10   3  72 NW26      30.16F WCI -11
WORTHINGTON    PTSUNNY   10   3  72 NW22      30.19F WCI  -9
JACKSON        SUNNY     12   3  67 NW25G33   30.15F WCI  -8
TRACY          MOSUNNY   14   7  73 NW17G25   30.21F WCI  -3
SLAYTON        CLOUDY    12   5  73 NW15G23   30.19F WCI  -4
$$
MNZ065>067-074>077-082>085-091>093-091900-
   South Central Minnesota

CITY           SKY/WX    TMP DP  RH WIND       PRES   REMARKS
MANKATO        SUNNY    N/A N/A N/A NW22      30.13F
NEW ULM        SUNNY     12   1  62 NW20G25   30.16F WCI  -6
ST JAMES       SUNNY     12   7  79 NW22G30   30.18F WCI  -7
FAIRMONT       SUNNY     10   1  67 NW21G31   30.14F WCI  -9
GLENCOE        SUNNY     14   4  65 NW18G25   30.15F WCI  -3
FARIBAULT      SUNNY     10   0  61 NW12G22   30.11S WCI  -4
OWATONNA       SUNNY     10   0  61 NW20      30.09S WCI  -8
WASECA         SUNNY     12   3  67 NW21      30.13S WCI  -6
ALBERT LEA     MOSUNNY   10   1  67 NW16G28   30.08S WCI  -7
$$
MNZ078>079-086>088-094>096-091900-
   Southeast Minnesota

CITY           SKY/WX    TMP DP  RH WIND       PRES   REMARKS
ROCHESTER      SUNNY      8   0  69 NW22      30.02F WCI -12
6HR MIN TEMP:   4; 6HR MAX TEMP:   8;

RED WING       SUNNY     12  -2  52 NW13G21   30.08F WCI  -3
STANTON        SUNNY     13   2  61 NW18      30.08F WCI  -4
DODGE CENTER   SUNNY     10   0  61 NW21G26   30.04S WCI  -9
WINONA         SUNNY     14   1  57 NW17G24   30.06S WCI  -3
AUSTIN         SUNNY      9   1  72 NW18G24   30.06S WCI -10
PRESTON        SUNNY      8  -2  64 NW18G25   30.01F WCI -11
$$
ABBREVIATIONS USED IN REMARKS
   TC - TEMPERATURES IN CELSIUS
  WCI - WIND CHILL INDEX
   HX - HEAT INDEX
  VSB - VISIBILITY
$$



USA.gov is the U.S. government's official web portal to all federal, state and local government web resources and services.